[[{"header":{"parameterUnit":"m.s-1","parameterCategory":2,"la1":30.2991,"la2":30.254,"lo1":-89.0895,"lo2":-89.0444,"dy":0.0017,"dx":0.0017,"nx":28,"ny":28,"refTime":"2026-02-09T09:00:00:Z","depth":"0","parameterNumber":2,"parameterNumberName":"U-component_of_CURRENTS"},"data":[0,0,0,0,0,0,0,0,0,0,0,0,0,0,0,0,0,0,0,0,0,0,0,0,0,0,0,0,0,0,0,0,0,0,0,0,0,0,0,0,0,0,0,0,0,0,0,0,0,0,0,0,0,0,0,0,0,0,-0.3219,-0.3217,0,-0.3058,-0.3056,-0.3054,-0.3053,-0.3056,-0.3058,-0.306,-0.2874,-0.2866,-0.2859,0,0,0,0,0,0,0,0,0,0,0,0,0,-0.3421,-0.3417,-0.3219,-0.3217,-0.3216,-0.3059,-0.3056,-0.3053,-0.3053,-0.3056,-0.3059,-0.3062,-0.2876,-0.2867,-0.2859,0,0,0,0,0,0,0,0,0,0,0,0,0,-0.3299,-0.3416,-0.3219,-0.32,-0.3198,-0.3059,-0.3056,-0.3052,-0.3052,-0.3056,-0.306,-0.3063,-0.2879,-0.2868,-0.2857,-0.2713,0,0,-0.2824,-0.2819,0,0,0,0,0,0,0,0,-0.3306,-0.3291,-0.3205,-0.3202,-0.3198,-0.3084,-0.3059,-0.2939,-0.3051,-0.3101,-0.3061,-0.3065,-0.2942,-0.2926,-0.288,-0.2704,-0.2696,-0.2823,-0.2816,-0.2811,-0.2808,0,0,0,0,0,0,0,-0.3315,-0.3297,-0.315,-0.3203,-0.3199,-0.3165,-0.3152,-0.3035,-0.2998,-0.3097,-0.3098,-0.3088,-0.294,-0.2891,-0.2876,-0.2693,-0.2823,-0.2813,-0.2806,-0.2802,-0.251,-0.2509,0,0,0,0,0,0,-0.3345,-0.3305,-0.3155,-0.3146,-0.3269,-0.3159,-0.3144,-0.3113,-0.2999,-0.2988,-0.3085,-0.3088,-0.2908,-0.2889,-0.2869,-0.2855,-0.2811,-0.2801,-0.2795,-0.2511,-0.251,-0.2509,0,0,0,0,0,0,-0.335,-0.3332,-0.3162,-0.3228,-0.3205,-0.3153,-0.3116,-0.3107,-0.3082,-0.2991,-0.2979,-0.3073,-0.291,-0.2885,-0.2788,-0.2843,-0.2796,-0.2786,-0.2513,-0.2511,-0.2509,-0.2722,0,0,0,0,0,0,-0.3356,-0.3334,-0.3314,-0.3229,-0.3202,-0.3132,-0.3113,-0.3102,-0.3071,-0.3075,-0.2975,-0.2961,-0.2911,-0.2804,-0.2777,-0.2827,-0.2777,-0.2514,-0.2512,-0.251,-0.2716,-0.2728,-0.2737,0,0,0,0,0,-0.3363,-0.3337,-0.3313,-0.3295,-0.3177,-0.3133,-0.3117,-0.3088,-0.3068,-0.3074,-0.2987,-0.2966,-0.2773,-0.2793,-0.2761,-0.281,-0.2515,-0.2512,-0.251,-0.2712,-0.2725,-0.2737,0,0,0,0,0,0,-0.3396,-0.3332,-0.3305,-0.3253,-0.3219,-0.3137,-0.3122,-0.3086,-0.3014,-0.3014,-0.2922,-0.29,-0.2848,-0.2761,-0.2786,-0.2711,-0.2649,-0.264,-0.2814,-0.2825,-0.2836,-0.2911,-0.2768,0,0,0,0,0,-0.3393,-0.3364,-0.3304,-0.326,-0.325,-0.3177,-0.3147,-0.3134,-0.3062,-0.3036,-0.2963,-0.2872,-0.2798,-0.2763,-0.2678,-0.2606,-0.2545,-0.2617,-0.2628,-0.2639,-0.2672,-0.2646,-0.266,-0.25,-0.25,-0.25,0,0,-0.3386,-0.3348,-0.3326,-0.3267,-0.3226,-0.3227,-0.317,-0.3147,-0.3153,-0.3019,-0.2985,-0.2897,-0.278,-0.2737,-0.2707,-0.2683,-0.2633,-0.2635,-0.2646,-0.2674,-0.2645,-0.2662,-0.2676,-0.2498,-0.2499,-0.2499,0,0,-0.3386,-0.3334,-0.3328,-0.3322,-0.3292,-0.3257,-0.326,-0.3196,-0.3184,-0.312,-0.3045,-0.2996,-0.2844,-0.2818,-0.2771,-0.2766,-0.2687,-0.2724,-0.285,-0.2825,-0.2841,-0.2854,-0.2742,-0.2744,-0.2738,-0.2738,-0.2738,0,-0.3386,-0.337,-0.332,-0.3339,-0.3343,-0.3284,-0.3306,-0.3275,-0.319,-0.3174,-0.3149,-0.2979,-0.2905,-0.2869,-0.2895,-0.2808,-0.2735,-0.283,-0.285,-0.2862,-0.2872,-0.2754,-0.2753,-0.2748,-0.2747,-0.2746,-0.2745,0,-0.3396,-0.3408,-0.3411,-0.3418,-0.341,-0.3425,-0.34,-0.3389,-0.3351,-0.3313,-0.3267,-0.3161,-0.3073,-0.305,-0.2978,-0.3002,-0.2903,-0.2873,-0.2847,-0.2903,-0.2771,-0.2767,-0.2762,-0.2759,-0.2756,-0.2753,0,0,-0.3344,-0.3411,-0.3417,-0.3453,-0.3469,-0.3457,-0.3488,-0.3483,-0.3481,-0.3438,-0.3426,-0.3358,-0.3301,-0.3243,-0.3154,-0.3155,-0.3159,-0.3062,-0.3056,-0.3001,-0.3034,-0.2924,-0.2907,-0.3139,-0.314,-0.3142,-0.2896,0,-0.3376,-0.3455,-0.3467,-0.3534,-0.3573,-0.3569,-0.3588,-0.358,-0.3548,-0.352,-0.3473,-0.3404,-0.3371,-0.3316,-0.3332,-0.317,-0.3164,-0.3223,-0.2944,-0.2934,-0.2875,-0.2907,-0.2783,-0.2554,-0.2891,-0.289,-0.289,0,-0.339,-0.3444,-0.3534,-0.361,-0.362,-0.3643,-0.3659,-0.3671,-0.3648,-0.3618,-0.3598,-0.3512,-0.3476,-0.3446,-0.3306,-0.3335,-0.3228,-0.3133,-0.312,-0.2956,-0.2821,-0.2555,-0.2532,-0.2514,-0.2882,-0.2882,-0.2883,0,-0.3389,-0.3489,-0.3566,-0.3598,-0.3663,-0.3687,-0.3704,-0.3697,-0.3663,-0.3666,-0.3596,-0.3582,-0.3467,-0.3425,-0.323,-0.3261,-0.305,-0.305,-0.2855,-0.2839,-0.2651,-0.2619,-0.2631,-0.3011,-0.3011,-0.3012,-0.3013,0,-0.3435,-0.348,-0.3573,-0.3617,-0.3646,-0.3701,-0.3696,-0.3717,-0.3692,-0.3591,-0.3628,-0.3507,-0.3461,-0.331,-0.323,-0.2993,-0.3039,-0.2885,-0.2798,-0.2707,-0.2684,-0.2591,-0.2624,-0.3003,-0.3005,-0.3007,-0.3008,0,-0.3398,-0.3495,-0.3551,-0.3639,-0.365,-0.3658,-0.3644,-0.3596,-0.3625,-0.349,-0.3467,-0.3391,-0.3207,-0.3123,-0.2957,-0.2893,-0.2682,-0.2659,-0.2515,-0.242,-0.2276,-0.2323,-0.2219,-0.2152,-0.2424,-0.242,-0.2417,0,-0.3375,-0.3414,-0.3507,-0.3486,-0.3512,-0.3525,-0.3474,-0.3539,-0.345,-0.3359,-0.3238,-0.3098,-0.2915,-0.2669,-0.2568,-0.2407,-0.2459,-0.2212,-0.2312,-0.2269,-0.2257,-0.231,-0.2268,-0.209,-0.2085,-0.208,-0.2077,0,-0.3256,-0.3299,-0.3327,-0.3322,-0.3293,-0.3248,-0.3198,-0.3134,-0.3124,-0.3032,-0.2841,-0.2733,-0.2516,-0.2313,-0.2169,-0.2082,-0.2179,-0.2113,-0.2123,-0.2066,-0.2069,-0.1957,-0.2198,-0.2036,-0.204,-0.2043,-0.2046,-0.2047,-0.3082,-0.3069,-0.3104,-0.3069,-0.3034,-0.2923,-0.2805,-0.2752,-0.2634,-0.2448,-0.2464,-0.2273,-0.2153,-0.1949,-0.1851,-0.1715,-0.1835,-0.1695,-0.1759,-0.1819,-0.1788,-0.1919,-0.165,-0.1652,-0.1653,-0.1655,-0.1656,0,-0.2808,-0.2832,-0.2808,-0.2758,-0.2618,-0.2695,-0.2536,-0.2378,-0.2176,-0.2108,-0.1972,-0.1837,-0.1672,-0.1616,-0.149,-0.1404,-0.1402,-0.1391,-0.1467,-0.1443,-0.1569,-0.1592,-0.1235,-0.1235,-0.1235,-0.1235,-0.1235,-0.1235,-0.2655,-0.2583,-0.2612,-0.2361,-0.2288,-0.203,-0.1904,-0.176,-0.1659,-0.1464,-0.1405,-0.1348,-0.14,-0.1497,-0.1372,-0.129,-0.1299,-0.1237,-0.1299,-0.1432,-0.1467,-0.1501,-0.1533,-0.1169,-0.1169,-0.1103,-0.1103,-0.1103]},{"header":{"parameterUnit":"m.s-1","parameterCategory":2,"la1":30.2991,"la2":30.254,"lo1":-89.0895,"lo2":-89.0444,"dy":0.0017,"dx":0.0017,"nx":28,"ny":28,"refTime":"2026-02-09T09:00:00:Z","depth":"0","parameterNumber":3,"parameterNumberName":"V-component_of_CURRENTS"},"data":[0,0,0,0,0,0,0,0,0,0,0,0,0,0,0,0,0,0,0,0,0,0,0,0,0,0,0,0,0,0,0,0,0,0,0,0,0,0,0,0,0,0,0,0,0,0,0,0,0,0,0,0,0,0,0,0,0,0,0.0716,0.0717,0,0.0795,0.0796,0.0797,0.0802,0.0802,0.0801,0.08,0.0855,0.0857,0.0859,0,0,0,0,0,0,0,0,0,0,0,0,0,0.0488,0.0493,0.0716,0.0717,0.0718,0.0795,0.0796,0.0797,0.0803,0.0802,0.0801,0.08,0.0854,0.0857,0.086,0,0,0,0,0,0,0,0,0,0,0,0,0,0.0579,0.0495,0.0716,0.0731,0.0733,0.0795,0.0796,0.0797,0.0803,0.0802,0.08,0.0799,0.0853,0.0857,0.086,0.0905,0,0,0.087,0.0872,0,0,0,0,0,0,0,0,0.0574,0.0587,0.0728,0.073,0.0732,0.0788,0.0736,0.0832,0.0803,0.0776,0.08,0.0799,0.0832,0.0837,0.0854,0.0908,0.091,0.0871,0.0873,0.0874,0.0875,0,0,0,0,0,0,0,0.0568,0.0583,0.0747,0.0729,0.0732,0.0705,0.0717,0.0754,0.0809,0.0778,0.0779,0.0789,0.0833,0.0851,0.0855,0.0911,0.087,0.0873,0.0875,0.0877,0.0983,0.0984,0,0,0,0,0,0,0.0566,0.0579,0.0744,0.0749,0.0649,0.0711,0.0724,0.0771,0.0809,0.0814,0.079,0.0789,0.0846,0.0851,0.0857,0.0851,0.0874,0.0877,0.0879,0.0982,0.0983,0.0984,0,0,0,0,0,0,0.0562,0.0582,0.0741,0.0663,0.0681,0.0717,0.0768,0.0773,0.0785,0.0818,0.0822,0.0796,0.0845,0.0852,0.0888,0.0855,0.0879,0.0882,0.0981,0.0982,0.0984,0.0878,0,0,0,0,0,0,0.0555,0.0581,0.0612,0.0665,0.0686,0.0763,0.077,0.0776,0.0794,0.0793,0.0825,0.0829,0.0844,0.0883,0.0891,0.086,0.0884,0.098,0.0982,0.0983,0.0881,0.0876,0.0872,0,0,0,0,0,0.0548,0.0585,0.0614,0.0633,0.073,0.0763,0.0771,0.0789,0.0795,0.0796,0.0827,0.0828,0.0898,0.0887,0.0896,0.0865,0.0979,0.0981,0.0983,0.0883,0.0877,0.0872,0,0,0,0,0,0,0.0524,0.0592,0.0623,0.0689,0.0719,0.0764,0.0765,0.079,0.0818,0.0812,0.0846,0.0853,0.0875,0.0902,0.0888,0.0907,0.0936,0.094,0.0857,0.0852,0.0847,0.0819,0.0887,0,0,0,0,0,0.0534,0.0562,0.0631,0.0677,0.0689,0.0731,0.0747,0.0763,0.0795,0.0805,0.0834,0.0866,0.0894,0.0896,0.0936,0.0946,0.0967,0.0935,0.093,0.0926,0.0913,0.0951,0.0947,0.099,0.099,0.099,0,0,0.0538,0.0576,0.0597,0.0669,0.069,0.0675,0.0736,0.0751,0.0734,0.0809,0.08,0.0861,0.0903,0.0911,0.0921,0.0921,0.092,0.0928,0.0923,0.0913,0.0952,0.0947,0.0943,0.0991,0.0991,0.0991,0,0,0.0491,0.0592,0.0562,0.0581,0.0608,0.0642,0.0644,0.0692,0.0709,0.0735,0.0776,0.0825,0.0866,0.0884,0.0898,0.09,0.091,0.0908,0.0836,0.0872,0.0867,0.0864,0.0851,0.0848,0.0886,0.0885,0.0885,0,0.0482,0.047,0.0559,0.0516,0.0515,0.0615,0.0564,0.0605,0.0659,0.0678,0.0714,0.0807,0.0847,0.0849,0.0845,0.0882,0.0892,0.0841,0.086,0.0858,0.0856,0.0845,0.0842,0.0881,0.0881,0.0882,0.0882,0,0.0374,0.0373,0.0356,0.0337,0.0363,0.0344,0.0411,0.0444,0.0501,0.055,0.0608,0.0696,0.0741,0.0767,0.08,0.0802,0.0809,0.0861,0.086,0.0844,0.0835,0.0833,0.0874,0.0875,0.0877,0.0878,0,0,0.0304,0.028,0.0263,0.0234,0.0263,0.0278,0.0272,0.0308,0.0325,0.0411,0.0432,0.051,0.0594,0.0619,0.0685,0.0719,0.0713,0.0768,0.0772,0.0728,0.075,0.0772,0.0773,0.0763,0.0763,0.0763,0.0734,0,0.0168,0.0046,0.0083,0.0001,-0.0046,0.0057,0.0061,0.0125,0.0213,0.0277,0.0392,0.0456,0.0523,0.0566,0.0602,0.0713,0.0711,0.0713,0.0797,0.0798,0.0798,0.0774,0.0827,0.0809,0.0734,0.0733,0.0733,0,0.0007,-0.0044,-0.0169,-0.0155,-0.0159,-0.0172,-0.011,-0.0088,0.0036,0.0109,0.0195,0.0318,0.0385,0.0471,0.0574,0.0571,0.063,0.071,0.0712,0.0769,0.0819,0.0824,0.081,0.0977,0.0732,0.0732,0.0732,0,-0.0135,-0.0212,-0.0311,-0.0321,-0.0294,-0.03,-0.0259,-0.0151,-0.0096,0.0014,0.0076,0.0186,0.026,0.0364,0.0513,0.0545,0.0634,0.0702,0.0757,0.0757,0.0839,0.0847,0.0978,0.0744,0.0744,0.0744,0.0744,0,-0.0305,-0.0372,-0.0381,-0.0433,-0.0476,-0.041,-0.0393,-0.0334,-0.0219,-0.0163,-0.0019,0.0039,0.0245,0.0341,0.0462,0.0588,0.0575,0.0729,0.0757,0.0803,0.0808,0.0989,0.1055,0.0743,0.0744,0.0744,0.0744,0,-0.0447,-0.0472,-0.056,-0.0565,-0.0552,-0.0576,-0.0467,-0.0428,-0.0336,-0.0263,-0.023,-0.007,0.0055,0.0233,0.0407,0.0517,0.0746,0.0681,0.0694,0.0726,0.0975,0.1032,0.1154,0.1252,0.0758,0.0759,0.0759,0,-0.0531,-0.0608,-0.0654,-0.0664,-0.0666,-0.0654,-0.0614,-0.0508,-0.0456,-0.0337,-0.0317,-0.0176,-0.007,0.0172,0.0409,0.0601,0.074,0.0746,0.0839,0.0981,0.1066,0.111,0.1188,0.0887,0.0888,0.089,0.0891,0,-0.0657,-0.068,-0.073,-0.077,-0.0762,-0.0744,-0.0695,-0.0678,-0.0556,-0.0501,-0.0438,-0.0347,-0.008,0.0196,0.0465,0.0596,0.0895,0.0776,0.0944,0.1185,0.1223,0.1334,0.0877,0.0901,0.09,0.0899,0.0898,0.0898,-0.0706,-0.0763,-0.081,-0.0833,-0.0835,-0.0837,-0.0828,-0.0772,-0.0727,-0.0587,-0.0526,-0.0274,0.0077,0.0497,0.0628,0.1005,0.0983,0.1157,0.1208,0.1235,0.1363,0.0897,0.0953,0.0952,0.0951,0.0951,0.095,0,-0.0726,-0.078,-0.0833,-0.0867,-0.0884,-0.0869,-0.086,-0.0825,-0.0809,-0.055,-0.0434,0.0095,0.0437,0.0811,0.1248,0.1446,0.1511,0.1544,0.1651,0.1708,0.1322,0.1368,0.1492,0.1492,0.1492,0.1492,0.1491,0.1491,-0.0724,-0.0785,-0.0823,-0.0878,-0.0902,-0.0919,-0.0932,-0.0891,-0.0708,-0.0302,0.0135,0.0459,0.0912,0.1439,0.1839,0.1875,0.2072,0.2027,0.2122,0.1896,0.1865,0.1836,0.1899,0.2132,0.2133,0.253,0.2534,0.2537]}],[{"header":{"parameterUnit":"m.s-1","parameterCategory":2,"la1":30.2991,"la2":30.254,"lo1":-89.0895,"lo2":-89.0444,"dy":0.0017,"dx":0.0017,"nx":28,"ny":28,"refTime":"2026-02-09T09:00:00:Z","depth":"2","parameterNumber":2,"parameterNumberName":"U-component_of_CURRENTS"},"data":[0,0,0,0,0,0,0,0,0,0,0,0,0,0,0,0,0,0,0,0,0,0,0,0,0,0,0,0,0,0,0,0,0,0,0,0,0,0,0,0,0,0,0,0,0,0,0,0,0,0,0,0,0,0,0,0,0,0,-0.2374,-0.2375,0,-0.2469,-0.2471,-0.2472,-0.2501,-0.25,-0.2499,-0.2499,-0.2563,-0.2566,-0.2568,0,0,0,0,0,0,0,0,0,0,0,0,0,-0.2296,-0.2297,-0.2374,-0.2375,-0.2376,-0.2469,-0.2471,-0.2472,-0.2501,-0.25,-0.2499,-0.2498,-0.2563,-0.2565,-0.2568,0,0,0,0,0,0,0,0,0,0,0,0,0,-0.2356,-0.2297,-0.2374,-0.24,-0.2403,-0.2469,-0.2471,-0.2473,-0.2501,-0.25,-0.2499,-0.2498,-0.2562,-0.2565,-0.2569,-0.261,0,0,-0.2579,-0.2581,0,0,0,0,0,0,0,0,-0.2352,-0.2359,-0.2395,-0.2398,-0.2402,-0.247,-0.2467,-0.2516,-0.2501,-0.2466,-0.2499,-0.2498,-0.2529,-0.2535,-0.2558,-0.2613,-0.2616,-0.258,-0.2582,-0.2583,-0.2584,0,0,0,0,0,0,0,-0.2348,-0.2355,-0.2414,-0.2396,-0.24,-0.2434,-0.2441,-0.2477,-0.2503,-0.2469,-0.2471,-0.2479,-0.2531,-0.2555,-0.256,-0.2617,-0.258,-0.2583,-0.2585,-0.2586,-0.2791,-0.2795,0,0,0,0,0,0,-0.233,-0.2351,-0.241,-0.2416,-0.2372,-0.2436,-0.2444,-0.2451,-0.2503,-0.251,-0.2479,-0.248,-0.255,-0.2556,-0.2562,-0.2692,-0.2583,-0.2587,-0.2589,-0.2788,-0.2792,-0.2796,0,0,0,0,0,0,-0.2328,-0.2334,-0.2407,-0.2384,-0.2396,-0.2438,-0.2446,-0.2453,-0.2494,-0.2511,-0.2517,-0.2513,-0.2549,-0.2557,-0.2612,-0.2691,-0.2588,-0.2591,-0.2784,-0.2789,-0.2794,-0.29,0,0,0,0,0,0,-0.2325,-0.2333,-0.2343,-0.2383,-0.2396,-0.2466,-0.2447,-0.2456,-0.2498,-0.25,-0.2542,-0.2546,-0.2549,-0.2607,-0.2616,-0.2694,-0.2594,-0.278,-0.2786,-0.2792,-0.2892,-0.2908,-0.2921,0,0,0,0,0,-0.2322,-0.2336,-0.2343,-0.235,-0.2405,-0.2467,-0.2479,-0.2506,-0.2501,-0.2536,-0.2557,-0.2546,-0.2654,-0.2612,-0.2622,-0.2703,-0.2777,-0.2785,-0.2792,-0.2886,-0.2905,-0.2921,0,0,0,0,0,0,-0.2302,-0.2342,-0.2349,-0.2373,-0.2425,-0.2472,-0.2495,-0.2522,-0.2568,-0.2573,-0.2577,-0.2584,-0.2664,-0.2669,-0.2622,-0.2782,-0.272,-0.2729,-0.2788,-0.2806,-0.2821,-0.2798,-0.2597,0,0,0,0,0,-0.2303,-0.2317,-0.2374,-0.2388,-0.2414,-0.2461,-0.249,-0.2528,-0.2567,-0.2588,-0.2615,-0.2653,-0.2705,-0.2738,-0.2775,-0.2859,-0.2771,-0.2922,-0.2936,-0.2949,-0.2939,-0.2851,-0.2855,-0.2821,-0.282,-0.282,0,0,-0.2305,-0.2316,-0.2332,-0.2385,-0.2416,-0.2478,-0.2477,-0.2541,-0.2607,-0.2588,-0.2671,-0.2699,-0.2734,-0.2827,-0.2866,-0.2841,-0.2916,-0.2958,-0.2968,-0.2952,-0.2859,-0.2861,-0.2863,-0.2826,-0.2825,-0.2824,0,0,-0.2304,-0.2321,-0.2344,-0.2395,-0.2458,-0.25,-0.2525,-0.2603,-0.2653,-0.2736,-0.2748,-0.2828,-0.2884,-0.2952,-0.2984,-0.3107,-0.2986,-0.3118,-0.3188,-0.3104,-0.3104,-0.3103,-0.2992,-0.298,-0.3137,-0.3137,-0.3138,0,-0.2307,-0.234,-0.2364,-0.2406,-0.2467,-0.2511,-0.2592,-0.2645,-0.2738,-0.277,-0.2772,-0.2889,-0.2955,-0.3062,-0.3127,-0.3145,-0.3028,-0.3116,-0.3116,-0.3113,-0.311,-0.2997,-0.2982,-0.3143,-0.3143,-0.3142,-0.3142,0,-0.2328,-0.2378,-0.2394,-0.2462,-0.2536,-0.2609,-0.2701,-0.2772,-0.2824,-0.2855,-0.296,-0.3045,-0.3101,-0.3172,-0.3196,-0.325,-0.315,-0.3128,-0.3056,-0.3119,-0.2997,-0.298,-0.3152,-0.315,-0.3148,-0.3147,0,0,-0.229,-0.2396,-0.2404,-0.2453,-0.2591,-0.2637,-0.2768,-0.2871,-0.2878,-0.2997,-0.3021,-0.3212,-0.3209,-0.3249,-0.3308,-0.3295,-0.3234,-0.3208,-0.3201,-0.307,-0.2974,-0.2918,-0.2892,-0.3159,-0.3157,-0.3156,-0.2892,0,-0.2312,-0.2386,-0.2466,-0.2573,-0.2639,-0.2754,-0.2837,-0.2932,-0.2977,-0.2988,-0.3109,-0.3135,-0.3247,-0.3268,-0.3288,-0.3236,-0.319,-0.3303,-0.2956,-0.2946,-0.2865,-0.2874,-0.2703,-0.2454,-0.2875,-0.2872,-0.287,0,-0.2324,-0.2372,-0.2497,-0.2615,-0.2652,-0.2721,-0.2833,-0.2916,-0.2961,-0.2995,-0.306,-0.3063,-0.3165,-0.319,-0.3143,-0.3177,-0.3086,-0.3035,-0.3022,-0.2915,-0.2859,-0.2463,-0.2405,-0.2839,-0.2842,-0.2844,-0.2846,0,-0.2261,-0.2394,-0.249,-0.2544,-0.2687,-0.2757,-0.2818,-0.2895,-0.2915,-0.296,-0.2925,-0.3006,-0.301,-0.2962,-0.2963,-0.2988,-0.2802,-0.2815,-0.2671,-0.2663,-0.243,-0.2406,-0.2695,-0.2696,-0.2696,-0.2697,-0.2698,0,-0.2244,-0.2296,-0.2447,-0.2485,-0.2519,-0.2685,-0.27,-0.2757,-0.2812,-0.2782,-0.2891,-0.2875,-0.2928,-0.2859,-0.2856,-0.2724,-0.2717,-0.266,-0.2592,-0.2467,-0.2451,-0.2726,-0.2733,-0.2687,-0.2689,-0.2691,-0.2693,0,-0.2131,-0.2246,-0.2337,-0.2487,-0.2487,-0.2514,-0.2567,-0.257,-0.2653,-0.262,-0.2632,-0.2697,-0.2648,-0.2663,-0.2557,-0.2553,-0.246,-0.2395,-0.2252,-0.2176,-0.2386,-0.2402,-0.2173,-0.2169,-0.2166,-0.2163,-0.216,0,-0.2074,-0.2121,-0.2264,-0.2247,-0.2292,-0.2327,-0.2333,-0.2458,-0.2472,-0.252,-0.2492,-0.2445,-0.242,-0.2283,-0.2252,-0.2156,-0.2287,-0.1932,-0.2013,-0.2375,-0.2332,-0.2354,-0.2375,-0.1722,-0.1716,-0.1711,-0.1707,0,-0.1953,-0.2037,-0.2082,-0.2051,-0.2061,-0.208,-0.2107,-0.2099,-0.2267,-0.2249,-0.2244,-0.2216,-0.2118,-0.1978,-0.1882,-0.1834,-0.1962,-0.183,-0.217,-0.1928,-0.1941,-0.1903,-0.1938,-0.1665,-0.1669,-0.1672,-0.1674,-0.1676,-0.1845,-0.1824,-0.1887,-0.1826,-0.1834,-0.1856,-0.1825,-0.19,-0.1909,-0.191,-0.1978,-0.189,-0.1865,-0.1646,-0.1556,-0.1492,-0.1639,-0.1582,-0.1599,-0.162,-0.1663,-0.1674,-0.1352,-0.1354,-0.1356,-0.1358,-0.136,0,-0.1693,-0.1667,-0.1621,-0.161,-0.1581,-0.1647,-0.168,-0.167,-0.1657,-0.1666,-0.1638,-0.1456,-0.1338,-0.1329,-0.1153,-0.1122,-0.1135,-0.1084,-0.1107,-0.1148,-0.1186,-0.1211,-0.0776,-0.0774,-0.0773,-0.0771,0,0,-0.1608,-0.1498,-0.1473,-0.1369,-0.1367,-0.133,-0.1347,-0.1329,-0.1313,-0.1246,-0.1192,-0.1263,-0.1276,-0.1029,-0.0968,-0.084,-0.0988,-0.0794,-0.1259,-0.1325,-0.1361,-0.1464,-0.1548,0,0,0,0,0]},{"header":{"parameterUnit":"m.s-1","parameterCategory":2,"la1":30.2991,"la2":30.254,"lo1":-89.0895,"lo2":-89.0444,"dy":0.0017,"dx":0.0017,"nx":28,"ny":28,"refTime":"2026-02-09T09:00:00:Z","depth":"2","parameterNumber":3,"parameterNumberName":"V-component_of_CURRENTS"},"data":[0,0,0,0,0,0,0,0,0,0,0,0,0,0,0,0,0,0,0,0,0,0,0,0,0,0,0,0,0,0,0,0,0,0,0,0,0,0,0,0,0,0,0,0,0,0,0,0,0,0,0,0,0,0,0,0,0,0,-0.0595,-0.0594,0,-0.0524,-0.0523,-0.0522,-0.0467,-0.0466,-0.0466,-0.0466,-0.0297,-0.0293,-0.0288,0,0,0,0,0,0,0,0,0,0,0,0,0,-0.0591,-0.0592,-0.0595,-0.0594,-0.0593,-0.0524,-0.0523,-0.0522,-0.0467,-0.0466,-0.0466,-0.0466,-0.0298,-0.0293,-0.0288,0,0,0,0,0,0,0,0,0,0,0,0,0,-0.0561,-0.0592,-0.0595,-0.056,-0.0556,-0.0525,-0.0523,-0.0522,-0.0467,-0.0466,-0.0466,-0.0466,-0.03,-0.0294,-0.0287,-0.0255,0,0,-0.0268,-0.0265,0,0,0,0,0,0,0,0,-0.0563,-0.0561,-0.0566,-0.0562,-0.0558,-0.0507,-0.046,-0.0429,-0.0467,-0.0497,-0.0466,-0.0465,-0.036,-0.0349,-0.0333,-0.0247,-0.024,-0.0267,-0.0263,-0.026,-0.0259,0,0,0,0,0,0,0,-0.0565,-0.0563,-0.0563,-0.0565,-0.0561,-0.0517,-0.0513,-0.0454,-0.0427,-0.0495,-0.0491,-0.0489,-0.0357,-0.034,-0.0329,-0.0237,-0.0267,-0.0262,-0.0258,-0.0255,-0.0053,-0.0052,0,0,0,0,0,0,-0.0586,-0.0566,-0.0566,-0.0562,-0.0564,-0.0518,-0.0513,-0.0521,-0.043,-0.0418,-0.0489,-0.0487,-0.0351,-0.0336,-0.0322,-0.0236,-0.026,-0.0254,-0.0251,-0.0055,-0.0053,-0.0051,0,0,0,0,0,0,-0.0586,-0.0587,-0.0569,-0.0564,-0.0559,-0.052,-0.0528,-0.052,-0.0499,-0.0428,-0.0412,-0.0477,-0.035,-0.0331,-0.0272,-0.023,-0.0252,-0.0246,-0.0057,-0.0054,-0.0052,-0.009,0,0,0,0,0,0,-0.0587,-0.0588,-0.0601,-0.0566,-0.056,-0.0557,-0.0528,-0.0519,-0.05,-0.0496,-0.0412,-0.0397,-0.0348,-0.0282,-0.0266,-0.0222,-0.0241,-0.0058,-0.0055,-0.0053,-0.0091,-0.009,-0.0088,0,0,0,0,0,-0.0587,-0.0611,-0.0602,-0.0602,-0.058,-0.0558,-0.055,-0.0518,-0.05,-0.0496,-0.0439,-0.0399,-0.0251,-0.0277,-0.0257,-0.0211,-0.006,-0.0056,-0.0053,-0.0091,-0.009,-0.0088,0,0,0,0,0,0,-0.0618,-0.0607,-0.0597,-0.0617,-0.0592,-0.055,-0.0548,-0.0521,-0.0474,-0.0467,-0.0394,-0.0374,-0.03,-0.0255,-0.0285,-0.0142,-0.0142,-0.0135,-0.0178,-0.0175,-0.0174,-0.0151,-0.0235,0,0,0,0,0,-0.0632,-0.065,-0.0621,-0.0638,-0.0628,-0.0586,-0.0573,-0.055,-0.0506,-0.0486,-0.0422,-0.0346,-0.027,-0.0228,-0.0163,-0.0095,-0.0073,-0.0047,-0.0046,-0.0045,-0.0011,0.0061,0.0072,-0.004,-0.004,-0.004,0,0,-0.0648,-0.0648,-0.0656,-0.0646,-0.0624,-0.062,-0.0577,-0.0564,-0.054,-0.0472,-0.0417,-0.0346,-0.0254,-0.0176,-0.0137,-0.0133,-0.0019,-0.0041,-0.0041,-0.0006,0.0066,0.0077,0.0086,-0.0038,-0.0038,-0.0039,0,0,-0.0684,-0.0688,-0.0705,-0.0692,-0.067,-0.0649,-0.0648,-0.0598,-0.0552,-0.0501,-0.0429,-0.0312,-0.0244,-0.0126,-0.0069,-0.0012,-0.002,-0.0023,0.0012,0.008,0.009,0.0099,0.0054,0.0059,-0.0016,-0.0016,-0.0016,0,-0.0701,-0.0726,-0.0704,-0.0712,-0.0702,-0.0667,-0.0666,-0.0624,-0.0556,-0.0504,-0.0491,-0.029,-0.0191,-0.0047,-0.0018,0.0002,-0.0036,-0.001,0.008,0.009,0.01,0.0053,0.006,-0.0018,-0.0017,-0.0017,-0.0017,0,-0.0743,-0.0759,-0.0768,-0.0772,-0.0753,-0.0757,-0.0698,-0.0659,-0.0606,-0.055,-0.0404,-0.0255,-0.0124,-0.007,-0.0023,0.011,0.0027,0.0061,0.0068,0.0109,0.0055,0.0063,-0.002,-0.0019,-0.0019,-0.0018,0,0,-0.0778,-0.0796,-0.0797,-0.0809,-0.0785,-0.0781,-0.0728,-0.0663,-0.0624,-0.0509,-0.0423,-0.0204,-0.0118,-0.0039,0.0062,0.0157,0.0202,0.0124,0.0128,0.0063,0.0223,0.027,0.0281,0.0204,0.0207,0.021,0.0123,0,-0.0812,-0.0853,-0.0836,-0.0866,-0.0876,-0.082,-0.0779,-0.0709,-0.063,-0.0549,-0.0342,-0.0231,-0.0116,-0.0041,0.0078,0.0172,0.0231,0.0215,0.0211,0.021,0.0238,0.03,0.0283,0.0216,0.0131,0.0132,0.0133,0,-0.0849,-0.0871,-0.0904,-0.0908,-0.0903,-0.0908,-0.0835,-0.0796,-0.0663,-0.0585,-0.042,-0.0309,-0.0098,-0.0025,0.0177,0.0124,0.0182,0.0249,0.0247,0.0331,0.0279,0.0184,0.0234,0.0146,0.0145,0.0144,0.0143,0,-0.0894,-0.0919,-0.0954,-0.0959,-0.0951,-0.0928,-0.0912,-0.0801,-0.0746,-0.0607,-0.0551,-0.0336,-0.0212,-0.0077,0.0125,0.0106,0.0282,0.0273,0.0361,0.0357,0.0379,0.0376,0.0409,0.041,0.041,0.041,0.041,0,-0.0948,-0.0977,-0.0986,-0.1014,-0.1024,-0.0989,-0.0967,-0.0903,-0.0801,-0.0735,-0.0573,-0.0448,-0.0218,-0.0074,0.0062,0.0248,0.024,0.0391,0.0382,0.0355,0.0351,0.0346,0.034,0.0407,0.0407,0.0408,0.0409,0,-0.0998,-0.1015,-0.1058,-0.106,-0.1055,-0.1064,-0.1024,-0.0994,-0.0903,-0.0807,-0.076,-0.0552,-0.0361,-0.0156,0.006,0.0184,0.0349,0.041,0.0318,0.0307,0.035,0.0343,0.0444,0.0446,0.0447,0.0449,0.045,0,-0.1032,-0.1062,-0.1096,-0.1107,-0.1113,-0.1115,-0.1096,-0.1034,-0.0989,-0.0836,-0.0783,-0.0593,-0.0407,-0.011,0.0137,0.0335,0.0374,0.0426,0.0483,0.0395,0.0374,0.0364,0.0355,0.042,0.042,0.0421,0.0422,0,-0.1075,-0.1092,-0.1124,-0.1144,-0.1151,-0.1159,-0.1133,-0.1116,-0.1021,-0.0933,-0.0775,-0.0634,-0.0335,-0.0065,0.0208,0.0337,0.0398,0.0447,0.0414,0.045,0.0378,0.0355,0.0346,0.0428,0.0427,0.0427,0.0426,0.0426,-0.1089,-0.1114,-0.1146,-0.1161,-0.1177,-0.1175,-0.1171,-0.1122,-0.1055,-0.0895,-0.0775,-0.0547,-0.0312,0.0101,0.0298,0.0472,0.0463,0.0512,0.0507,0.0502,0.0553,0.0493,0.0563,0.0563,0.0564,0.0564,0.0564,0,-0.1085,-0.1114,-0.1142,-0.1167,-0.1188,-0.1189,-0.1165,-0.1129,-0.1044,-0.0873,-0.0708,-0.0416,-0.0127,0.0108,0.039,0.0555,0.0534,0.0579,0.0519,0.0513,0.0507,0.0557,0.0569,0.0569,0.0569,0.057,0,0,-0.1085,-0.1107,-0.1121,-0.115,-0.1175,-0.1181,-0.1169,-0.1089,-0.0972,-0.0787,-0.0614,-0.0389,-0.011,0.0093,0.0299,0.0442,0.0432,0.0454,0.0434,0.0333,0.0326,0.0455,0.0524,0,0,0,0,0]}],[{"header":{"parameterUnit":"m.s-1","parameterCategory":2,"la1":30.2991,"la2":30.254,"lo1":-89.0895,"lo2":-89.0444,"dy":0.0017,"dx":0.0017,"nx":28,"ny":28,"refTime":"2026-02-09T09:00:00:Z","depth":"4","parameterNumber":2,"parameterNumberName":"U-component_of_CURRENTS"},"data":[0,0,0,0,0,0,0,0,0,0,0,0,0,0,0,0,0,0,0,0,0,0,0,0,0,0,0,0,0,0,0,0,0,0,0,0,0,0,0,0,0,0,0,0,0,0,0,0,0,0,0,0,0,0,0,0,0,0,-0.1379,-0.1379,0,-0.1398,-0.1398,-0.1399,-0.1441,-0.1442,-0.1443,-0.1444,-0.1498,-0.1499,-0.15,0,0,0,0,0,0,0,0,0,0,0,0,0,-0.1358,-0.1359,-0.1379,-0.1379,-0.1379,-0.1398,-0.1398,-0.1399,-0.1441,-0.1442,-0.1443,-0.1444,-0.1498,-0.1499,-0.15,0,0,0,0,0,0,0,0,0,0,0,0,0,-0.1373,-0.1359,-0.1379,-0.1401,-0.1404,-0.1398,-0.1398,-0.1399,-0.1441,-0.1442,-0.1443,-0.1444,-0.1498,-0.1499,-0.15,-0.1486,0,0,-0.1504,-0.1504,0,0,0,0,0,0,0,0,-0.1372,-0.1374,-0.1398,-0.14,-0.1402,-0.1417,-0.1411,-0.1429,-0.1441,-0.1429,-0.1444,-0.1445,-0.1472,-0.1476,-0.1479,-0.1488,-0.1491,-0.1504,-0.1504,-0.1505,-0.1505,0,0,0,0,0,0,0,-0.1371,-0.1373,-0.1388,-0.1398,-0.1401,-0.1403,-0.1407,-0.1415,-0.1446,-0.143,-0.1433,-0.1432,-0.1474,-0.1478,-0.1481,-0.1491,-0.1504,-0.1505,-0.1505,-0.1506,-0.1578,-0.1579,0,0,0,0,0,0,-0.1365,-0.1372,-0.1388,-0.1389,-0.1387,-0.1402,-0.1407,-0.1413,-0.1446,-0.1451,-0.1431,-0.1433,-0.1475,-0.1479,-0.1483,-0.1555,-0.1505,-0.1506,-0.1507,-0.1577,-0.1579,-0.158,0,0,0,0,0,0,-0.1365,-0.1367,-0.1387,-0.1379,-0.1382,-0.1402,-0.1408,-0.1412,-0.1439,-0.1445,-0.1452,-0.1456,-0.1476,-0.1481,-0.1513,-0.1554,-0.1507,-0.1508,-0.1576,-0.1578,-0.1579,-0.1644,0,0,0,0,0,0,-0.1364,-0.1367,-0.1379,-0.1379,-0.1382,-0.1391,-0.1407,-0.1412,-0.1435,-0.1439,-0.1468,-0.1473,-0.1477,-0.1511,-0.1514,-0.1555,-0.1509,-0.1574,-0.1576,-0.1579,-0.164,-0.1647,-0.1654,0,0,0,0,0,-0.1363,-0.1361,-0.1379,-0.1381,-0.1395,-0.139,-0.1393,-0.1411,-0.1435,-0.1442,-0.1472,-0.1474,-0.1528,-0.1512,-0.1516,-0.1558,-0.1573,-0.1576,-0.1578,-0.1637,-0.1646,-0.1654,0,0,0,0,0,0,-0.1347,-0.1365,-0.1385,-0.1388,-0.1396,-0.1397,-0.1405,-0.1422,-0.1451,-0.1466,-0.1482,-0.1489,-0.1535,-0.1531,-0.1514,-0.1585,-0.1553,-0.1557,-0.1597,-0.1605,-0.1612,-0.1602,-0.1509,0,0,0,0,0,-0.1352,-0.1363,-0.1376,-0.1378,-0.1388,-0.1405,-0.1412,-0.1424,-0.1442,-0.1457,-0.1482,-0.1511,-0.1543,-0.1562,-0.1578,-0.1611,-0.1594,-0.1641,-0.1648,-0.1654,-0.1648,-0.1637,-0.1641,-0.1589,-0.1589,-0.1589,0,0,-0.1343,-0.1355,-0.1362,-0.1377,-0.139,-0.1407,-0.1413,-0.1424,-0.1455,-0.1457,-0.1514,-0.1534,-0.1556,-0.16,-0.1621,-0.1606,-0.1668,-0.1658,-0.1663,-0.1653,-0.164,-0.1645,-0.1649,-0.1591,-0.159,-0.159,0,0,-0.1332,-0.135,-0.1366,-0.1378,-0.14,-0.1409,-0.1419,-0.1441,-0.1475,-0.1517,-0.1539,-0.1564,-0.1622,-0.1633,-0.1651,-0.1697,-0.1703,-0.1734,-0.1765,-0.1755,-0.1759,-0.1762,-0.1777,-0.1781,-0.174,-0.174,-0.174,0,-0.1326,-0.1347,-0.1365,-0.1386,-0.1396,-0.1418,-0.1435,-0.1469,-0.1502,-0.1525,-0.1545,-0.1609,-0.1628,-0.1669,-0.1711,-0.1711,-0.1728,-0.1735,-0.1763,-0.1766,-0.1768,-0.1782,-0.1785,-0.1743,-0.1743,-0.1743,-0.1742,0,-0.133,-0.1355,-0.136,-0.1404,-0.1419,-0.1425,-0.147,-0.1505,-0.155,-0.1575,-0.1629,-0.1648,-0.1678,-0.1709,-0.1741,-0.178,-0.1798,-0.1771,-0.174,-0.1777,-0.179,-0.1793,-0.1748,-0.1747,-0.1746,-0.1745,0,0,-0.1285,-0.1353,-0.1358,-0.138,-0.1426,-0.1428,-0.1494,-0.1535,-0.1567,-0.162,-0.166,-0.1723,-0.1727,-0.1747,-0.1773,-0.1789,-0.184,-0.1817,-0.1815,-0.183,-0.1863,-0.1734,-0.1724,-0.1841,-0.1841,-0.1841,-0.1878,0,-0.1283,-0.1323,-0.136,-0.1391,-0.1411,-0.1456,-0.1501,-0.1546,-0.1598,-0.1645,-0.168,-0.1725,-0.1747,-0.1777,-0.1794,-0.1829,-0.1847,-0.1834,-0.1827,-0.1827,-0.1704,-0.1721,-0.1841,-0.1879,-0.188,-0.188,-0.188,0,-0.127,-0.1302,-0.1342,-0.1384,-0.1396,-0.1426,-0.148,-0.1526,-0.1602,-0.1643,-0.1686,-0.1725,-0.1778,-0.1783,-0.1826,-0.1836,-0.1862,-0.1877,-0.1877,-0.1727,-0.1699,-0.1827,-0.1884,-0.1884,-0.1883,-0.1883,-0.1883,0,-0.1217,-0.1274,-0.1304,-0.1321,-0.1385,-0.142,-0.1457,-0.1526,-0.1573,-0.1652,-0.1697,-0.173,-0.1783,-0.1796,-0.1855,-0.186,-0.1899,-0.188,-0.1777,-0.177,-0.1849,-0.1845,-0.1889,-0.1889,-0.1889,-0.1889,-0.1889,0,-0.1177,-0.1198,-0.1286,-0.1303,-0.133,-0.1389,-0.143,-0.148,-0.156,-0.161,-0.1695,-0.1738,-0.1801,-0.1845,-0.1861,-0.1826,-0.1888,-0.1777,-0.1758,-0.1881,-0.188,-0.1852,-0.1848,-0.189,-0.189,-0.189,-0.189,0,-0.1109,-0.1168,-0.1202,-0.1283,-0.1313,-0.1334,-0.1428,-0.1456,-0.1547,-0.1626,-0.1666,-0.1775,-0.1812,-0.1849,-0.188,-0.1824,-0.1798,-0.1773,-0.193,-0.1921,-0.1682,-0.1681,-0.1637,-0.1633,-0.1629,-0.1626,-0.1623,0,-0.1071,-0.1092,-0.1185,-0.1209,-0.1254,-0.1309,-0.1349,-0.1442,-0.1488,-0.1634,-0.1668,-0.176,-0.1813,-0.1744,-0.1783,-0.1747,-0.1732,-0.1714,-0.1667,-0.1664,-0.1651,-0.1656,-0.1659,-0.1617,-0.1616,-0.1615,-0.1614,0,-0.0999,-0.1049,-0.1077,-0.1146,-0.1197,-0.1245,-0.1323,-0.1349,-0.1466,-0.1569,-0.1618,-0.1635,-0.1674,-0.1663,-0.1652,-0.163,-0.1709,-0.1673,-0.1681,-0.1636,-0.1639,-0.1631,-0.1639,-0.16,-0.1602,-0.1604,-0.1604,0,-0.0939,-0.0936,-0.0999,-0.1042,-0.1113,-0.1165,-0.1216,-0.1274,-0.1329,-0.1491,-0.1503,-0.1587,-0.1669,-0.1605,-0.1595,-0.155,-0.1516,-0.1461,-0.1479,-0.1494,-0.1423,-0.1404,-0.1268,0,0,0,0,0,-0.0864,-0.0858,-0.0895,-0.0942,-0.1023,-0.1075,-0.1187,-0.1246,-0.1375,-0.1367,-0.1426,-0.1448,-0.1433,-0.1472,-0.1389,-0.1516,-0.1518,-0.1413,-0.1464,-0.1526,-0.1542,-0.1468,0,0,0,0,0,0,-0.0808,-0.0832,-0.0851,-0.0865,-0.089,-0.0973,-0.1044,-0.1138,-0.1137,-0.1266,-0.1258,-0.1345,-0.1342,-0.1447,-0.1354,-0.136,-0.1359,-0.1454,-0.145,-0.1518,-0.1532,-0.1544,-0.1473,0,0,0,0,0]},{"header":{"parameterUnit":"m.s-1","parameterCategory":2,"la1":30.2991,"la2":30.254,"lo1":-89.0895,"lo2":-89.0444,"dy":0.0017,"dx":0.0017,"nx":28,"ny":28,"refTime":"2026-02-09T09:00:00:Z","depth":"4","parameterNumber":3,"parameterNumberName":"V-component_of_CURRENTS"},"data":[0,0,0,0,0,0,0,0,0,0,0,0,0,0,0,0,0,0,0,0,0,0,0,0,0,0,0,0,0,0,0,0,0,0,0,0,0,0,0,0,0,0,0,0,0,0,0,0,0,0,0,0,0,0,0,0,0,0,-0.0509,-0.0509,0,-0.0482,-0.0482,-0.0481,-0.0453,-0.0453,-0.0453,-0.0452,-0.0402,-0.0401,-0.04,0,0,0,0,0,0,0,0,0,0,0,0,0,-0.0471,-0.0472,-0.0509,-0.0509,-0.0509,-0.0482,-0.0482,-0.0481,-0.0453,-0.0453,-0.0453,-0.0452,-0.0403,-0.0401,-0.04,0,0,0,0,0,0,0,0,0,0,0,0,0,-0.0468,-0.0472,-0.051,-0.0493,-0.0491,-0.0482,-0.0482,-0.0481,-0.0453,-0.0453,-0.0453,-0.0452,-0.0403,-0.0401,-0.04,-0.0396,0,0,-0.0395,-0.0394,0,0,0,0,0,0,0,0,-0.0469,-0.047,-0.0496,-0.0494,-0.0492,-0.0472,-0.0449,-0.0452,-0.0453,-0.0466,-0.0452,-0.0452,-0.0425,-0.0421,-0.0415,-0.0394,-0.0392,-0.0394,-0.0393,-0.0393,-0.0392,0,0,0,0,0,0,0,-0.0469,-0.047,-0.0497,-0.0496,-0.0494,-0.0464,-0.0464,-0.0449,-0.0446,-0.0465,-0.0463,-0.0463,-0.0423,-0.0417,-0.0414,-0.0391,-0.0394,-0.0393,-0.0392,-0.0391,-0.0373,-0.0373,0,0,0,0,0,0,-0.048,-0.0471,-0.0498,-0.0496,-0.0481,-0.0466,-0.0465,-0.0478,-0.0447,-0.0442,-0.0463,-0.0462,-0.042,-0.0416,-0.0412,-0.0426,-0.0393,-0.0391,-0.039,-0.0372,-0.0373,-0.0374,0,0,0,0,0,0,-0.0479,-0.0483,-0.0499,-0.0483,-0.0483,-0.0467,-0.0481,-0.0477,-0.0474,-0.0446,-0.0441,-0.0464,-0.0419,-0.0414,-0.041,-0.0423,-0.039,-0.0389,-0.0372,-0.0373,-0.0373,-0.0442,0,0,0,0,0,0,-0.0478,-0.0483,-0.05,-0.0485,-0.0485,-0.0505,-0.0481,-0.0477,-0.0475,-0.0473,-0.0445,-0.044,-0.0419,-0.0413,-0.0408,-0.042,-0.0388,-0.0371,-0.0372,-0.0373,-0.0439,-0.0445,-0.045,0,0,0,0,0,-0.0477,-0.0499,-0.0501,-0.0504,-0.0508,-0.0506,-0.0503,-0.0488,-0.0475,-0.0482,-0.0464,-0.0441,-0.0415,-0.0412,-0.0407,-0.0418,-0.0371,-0.0372,-0.0373,-0.0437,-0.0444,-0.045,0,0,0,0,0,0,-0.0492,-0.0498,-0.05,-0.0523,-0.0522,-0.0502,-0.0506,-0.0494,-0.0484,-0.0483,-0.045,-0.0445,-0.0449,-0.0422,-0.0419,-0.0415,-0.0388,-0.0388,-0.0438,-0.0445,-0.045,-0.0462,-0.0386,0,0,0,0,0,-0.0505,-0.0524,-0.052,-0.0542,-0.0541,-0.0525,-0.0523,-0.0516,-0.0503,-0.0498,-0.0478,-0.0458,-0.0448,-0.0438,-0.0427,-0.0423,-0.0368,-0.0425,-0.0431,-0.0436,-0.0441,-0.0385,-0.0386,-0.0377,-0.0377,-0.0377,0,0,-0.0519,-0.0523,-0.0536,-0.0546,-0.0541,-0.0552,-0.0523,-0.0528,-0.0536,-0.0495,-0.0498,-0.0482,-0.0454,-0.0456,-0.0453,-0.0434,-0.0401,-0.0437,-0.0442,-0.0445,-0.0386,-0.0387,-0.0388,-0.0378,-0.0378,-0.0378,0,0,-0.0544,-0.0558,-0.0576,-0.0582,-0.0584,-0.0576,-0.0581,-0.0569,-0.0561,-0.0565,-0.0541,-0.0539,-0.0511,-0.0502,-0.0491,-0.052,-0.0439,-0.0504,-0.0535,-0.0481,-0.0481,-0.0481,-0.0377,-0.0367,-0.0499,-0.0499,-0.0499,0,-0.0558,-0.0587,-0.0581,-0.0599,-0.061,-0.0591,-0.0613,-0.0604,-0.0593,-0.0587,-0.0576,-0.0555,-0.0538,-0.054,-0.0549,-0.0535,-0.0463,-0.0515,-0.0488,-0.0487,-0.0485,-0.0379,-0.0367,-0.0503,-0.0502,-0.0502,-0.0502,0,-0.0594,-0.0621,-0.0631,-0.0653,-0.0663,-0.068,-0.0674,-0.0675,-0.0662,-0.0648,-0.0648,-0.0631,-0.0613,-0.0609,-0.0588,-0.0573,-0.051,-0.0508,-0.0472,-0.049,-0.0377,-0.0363,-0.0508,-0.0507,-0.0506,-0.0505,0,0,-0.061,-0.0649,-0.0655,-0.0677,-0.0697,-0.0708,-0.0723,-0.0724,-0.0719,-0.0715,-0.0702,-0.071,-0.0688,-0.0675,-0.065,-0.0609,-0.0534,-0.055,-0.0546,-0.0448,-0.0357,-0.0359,-0.0343,-0.0515,-0.0514,-0.0513,-0.027,0,-0.0637,-0.069,-0.07,-0.0749,-0.0774,-0.0773,-0.0784,-0.0784,-0.0765,-0.0742,-0.0728,-0.071,-0.0714,-0.0697,-0.0666,-0.0567,-0.0505,-0.0596,-0.0354,-0.0346,-0.0348,-0.0332,-0.0509,-0.0259,-0.0256,-0.0254,-0.0252,0,-0.0665,-0.0697,-0.0758,-0.0796,-0.0805,-0.0832,-0.0843,-0.0849,-0.0815,-0.0794,-0.0782,-0.0741,-0.0701,-0.0693,-0.0549,-0.0595,-0.0485,-0.0406,-0.0395,-0.0369,-0.0325,-0.0245,-0.0226,-0.0228,-0.023,-0.0232,-0.0233,0,-0.068,-0.0735,-0.0789,-0.0809,-0.0847,-0.0869,-0.0882,-0.0869,-0.0857,-0.0819,-0.0783,-0.0742,-0.0687,-0.0588,-0.0447,-0.0474,-0.0249,-0.0263,-0.0156,-0.0151,-0.019,-0.0194,-0.0149,-0.0149,-0.0149,-0.015,-0.0151,0,-0.0704,-0.0745,-0.0804,-0.0834,-0.0876,-0.0898,-0.0919,-0.0912,-0.0885,-0.0854,-0.0812,-0.0758,-0.0653,-0.0519,-0.0412,-0.0234,-0.0217,-0.0151,-0.0101,-0.0219,-0.0229,-0.0177,-0.0184,-0.0141,-0.0143,-0.0145,-0.0146,0,-0.0713,-0.0756,-0.0813,-0.0869,-0.0888,-0.0918,-0.0942,-0.094,-0.0913,-0.0864,-0.0844,-0.0729,-0.0563,-0.0434,-0.0227,-0.017,-0.0015,0.005,-0.0039,0.0002,0.0051,0.0038,0.0197,0.0199,0.02,0.0202,0.0203,0,-0.0723,-0.076,-0.0836,-0.0865,-0.0895,-0.094,-0.0959,-0.0958,-0.0942,-0.0841,-0.0801,-0.0634,-0.0548,-0.0234,-0.0131,0.009,0.0094,0.0192,0.0057,0.0048,0.0082,0.0066,0.0052,0.0205,0.0205,0.0206,0.0206,0,-0.0732,-0.0768,-0.0811,-0.0872,-0.0912,-0.0945,-0.0967,-0.0948,-0.0918,-0.0888,-0.0725,-0.058,-0.0379,-0.0206,-0.0025,0.0112,0.0121,0.0207,0.0203,0.0077,0.0059,0.0088,0.0072,0.0211,0.021,0.021,0.021,0,-0.0729,-0.0756,-0.0817,-0.0864,-0.0917,-0.0934,-0.0945,-0.0905,-0.0877,-0.0767,-0.0705,-0.0512,-0.0402,-0.0187,-0.003,0.0105,0.011,0.0124,0.0125,0.0121,-0.0017,-0.0059,0.0111,0,0,0,0,0,-0.0716,-0.0749,-0.08,-0.0849,-0.0904,-0.0934,-0.0942,-0.0941,-0.0901,-0.0781,-0.0742,-0.0558,-0.0311,-0.0202,-0.0063,-0.004,0.0109,0.0123,0.0119,0.0239,0.0233,0.0076,0,0,0,0,0,0,-0.0705,-0.0758,-0.079,-0.0838,-0.0872,-0.0918,-0.0925,-0.0897,-0.0824,-0.0761,-0.0621,-0.0547,-0.0306,-0.0388,-0.0065,-0.0026,-0.0015,0.0237,0.0239,0.0242,0.0237,0.0232,0.0069,0,0,0,0,0]}]]